Location: ??????
(56.0120°N, 39.1740°E)
Time: 19:56:17
(UTC+00:00)

SJ 16-02 - Pass Details

Date: 14 April 2026
Orbit: 582 x 592 km, 75.0° (Epoch: 19 May)

Event Time Altitude Azimuth Distance (km) Brightness Sun altitude
Rises 22:15:14 0° 324° (NW) 2,830 5.3 -23.4°
Reaches altitude 10° 22:18:02 10° 305° (NW) 1,922 4.1 -23.3°
Enters shadow 22:19:47 16° 282° (WNW) 1,557 3.4 -23.3°
